This is the latest recevied weather packets stored in our database for station/object JS2WAD-13. If no packets are shown the sender has not sent any weather packets the latest 10 day(s).
| Time | Temp. | Humidity | Pressure | Rain* | Wind** | Luminosity | Snow |
|---|---|---|---|---|---|---|---|
| 1777413705 | 18.33° C | 55% | 904.2 hPa | 0 mm | - | 42 W/m² | - |
| 1777413404 | 18.33° C | 54% | 904.3 hPa | 0 mm | - | 60 W/m² | - |
| 1777413104 | 18.33° C | 53% | 904.2 hPa | 0 mm | - | 60 W/m² | - |
| 1777412805 | 18.33° C | 54% | 904.1 hPa | 0 mm | - | 40 W/m² | - |
| 1777412505 | 18.33° C | 55% | 904.1 hPa | 0 mm | - | 35 W/m² | - |
| 1777412205 | 18.33° C | 52% | 904 hPa | 0 mm | - | 35 W/m² | - |
| 1777411905 | 18.33° C | 54% | 904 hPa | 0 mm | - | 39 W/m² | - |
| 1777411605 | 18.33° C | 53% | 904 hPa | 0 mm | - | 32 W/m² | - |
| 1777411305 | 18.33° C | 52% | 903.9 hPa | 0 mm | - | 32 W/m² | - |
| 1777411005 | 18.33° C | 51% | 903.9 hPa | 0 mm | - | 28 W/m² | - |
| 1777410705 | 18.33° C | 51% | 903.9 hPa | 0 mm | - | 26 W/m² | - |
| 1777410405 | 18.33° C | 51% | 903.8 hPa | 0 mm | - | 19 W/m² | - |
| 1777410105 | 18.89° C | 51% | 903.7 hPa | 0 mm | - | 14 W/m² | - |
| 1777409805 | 18.89° C | 50% | 903.6 hPa | 0 mm | - | 16 W/m² | - |
| 1777409505 | 18.89° C | 52% | 903.7 hPa | 0 mm | - | 12 W/m² | - |
| 1777409205 | 18.89° C | 51% | 903.5 hPa | 0 mm | - | 12 W/m² | - |
| 1777408905 | 18.89° C | 53% | 903.6 hPa | 0 mm | - | 11 W/m² | - |
| 1777408605 | 18.89° C | 53% | 903.4 hPa | 0 mm | - | 9 W/m² | - |
| 1777408305 | 18.89° C | 53% | 903.4 hPa | 0 mm | - | 9 W/m² | - |
| 1777408005 | 18.89° C | 56% | 903.3 hPa | 0 mm | - | 5 W/m² | - |
| 1777407705 | 18.89° C | 59% | 903.3 hPa | 0 mm | - | 5 W/m² | - |
| 1777407405 | 18.89° C | 54% | 903.3 hPa | 0 mm | - | 0 W/m² | - |
| 1777407105 | 18.89° C | 56% | 903.2 hPa | 0 mm | - | 0 W/m² | - |
| 1777406805 | 18.89° C | 55% | 903.3 hPa | 0 mm | - | 0 W/m² | - |
| 1777406505 | 18.89° C | 56% | 903.2 hPa | 0 mm | - | 0 W/m² | - |
* Rain latest hour (hover to see other rain measurements)
** Current wind speed in m/s (hover to see current wind gust speed)